User: anonymous   Login
Location: Charbonni�res
(45.9952°N, 2.9982°E)
Time: 02:19:32
(UTC+00:00)
Language:

Cosmos 1242 Rocket - Orbit

View from above orbital plane
View from above orbital plane
View from above satellite
View from above satellite

Ground track
Ground track

The orbit data is extracted from the following two-line orbital elements,

1 12155U 81008B   21060.78466244  .00001416  00000-0  42471-4 0  9995
2 12155  81.1591 252.7288 0028400  28.2820 331.9952 15.33333379199710
Epoch (UTC): 01 March 2021 18:49:54
Eccentricity: 0.0028400
inclination: 81.1591°
perigee height: 446 km
apogee height: 485 km
right ascension of ascending node: 252.7288°
argument of perigee: 28.2820°
revolutions per day: 15.33333379
mean anomaly at epoch: 331.9952°
orbit number at epoch: 19971

The dashed part of the orbit path shows where the satellite is in the earth's shadow,  

DLR